TimeHST,TemperatureF,Dew PointF,Humidity,Sea Level PressureIn,VisibilityMPH,Wind Direction,Wind SpeedMPH,Gust SpeedMPH,PrecipitationIn,Events,Conditions,WindDirDegrees,DateUTC
12:03 AM,73.4,69.8,88,30.15,10.0,ENE,8.1,-,N/A,,Scattered Clouds,70,2012-01-20 10:03:00
12:53 AM,73.0,68.0,84,30.13,10.0,ENE,9.2,-,N/A,,Partly Cloudy,70,2012-01-20 10:53:00
1:53 AM,73.0,68.0,84,30.12,10.0,ENE,9.2,-,N/A,,Scattered Clouds,70,2012-01-20 11:53:00
2:53 AM,73.0,66.9,81,30.09,10.0,East,8.1,-,N/A,,Partly Cloudy,80,2012-01-20 12:53:00
3:19 AM,73.4,66.2,78,30.09,10.0,ENE,8.1,-,N/A,,Mostly Cloudy,70,2012-01-20 13:19:00
3:53 AM,73.0,66.9,81,30.09,10.0,ENE,5.8,-,N/A,,Mostly Cloudy,70,2012-01-20 13:53:00
4:10 AM,71.6,66.2,83,30.09,10.0,ENE,5.8,-,N/A,,Scattered Clouds,70,2012-01-20 14:10:00
4:33 AM,73.4,68.0,83,30.09,10.0,ENE,8.1,-,N/A,,Mostly Cloudy,70,2012-01-20 14:33:00
4:49 AM,73.4,66.2,78,30.09,10.0,ENE,8.1,-,N/A,,Scattered Clouds,70,2012-01-20 14:49:00
4:53 AM,73.0,66.9,81,30.09,10.0,East,6.9,-,N/A,,Scattered Clouds,80,2012-01-20 14:53:00
5:00 AM,73.4,68.0,83,30.09,10.0,ENE,8.1,-,N/A,,Mostly Cloudy,60,2012-01-20 15:00:00
5:08 AM,71.6,66.2,83,30.10,10.0,ENE,6.9,-,N/A,,Partly Cloudy,60,2012-01-20 15:08:00
5:53 AM,69.1,66.0,90,30.09,10.0,Calm,Calm,-,N/A,,Partly Cloudy,0,2012-01-20 15:53:00
6:39 AM,69.8,66.2,88,30.10,10.0,Calm,Calm,-,N/A,,Mostly Cloudy,0,2012-01-20 16:39:00
6:53 AM,70.0,66.9,90,30.10,10.0,Calm,Calm,-,N/A,,Overcast,0,2012-01-20 16:53:00
7:53 AM,73.9,68.0,82,30.12,10.0,ENE,10.4,-,N/A,,Mostly Cloudy,70,2012-01-20 17:53:00
8:53 AM,75.0,68.0,79,30.14,10.0,East,9.2,-,N/A,,Mostly Cloudy,80,2012-01-20 18:53:00
9:53 AM,75.9,66.9,74,30.15,10.0,East,9.2,-,N/A,,Mostly Cloudy,80,2012-01-20 19:53:00
10:09 AM,77.0,68.0,74,30.16,10.0,East,6.9,-,N/A,,Scattered Clouds,80,2012-01-20 20:09:00
10:53 AM,78.1,66.9,68,30.15,10.0,ESE,5.8,-,N/A,,Partly Cloudy,120,2012-01-20 20:53:00
11:53 AM,78.1,66.9,68,30.13,10.0,East,4.6,-,N/A,,Clear,100,2012-01-20 21:53:00
12:53 PM,79.0,68.0,69,30.11,10.0,East,4.6,-,N/A,,Clear,100,2012-01-20 22:53:00
1:53 PM,79.0,66.9,66,30.09,10.0,East,5.8,-,N/A,,Clear,80,2012-01-20 23:53:00
2:53 PM,78.1,66.9,68,30.09,10.0,East,6.9,-,N/A,,Scattered Clouds,80,2012-01-21 00:53:00
3:53 PM,78.1,66.9,68,30.09,10.0,ENE,5.8,-,N/A,,Clear,70,2012-01-21 01:53:00
4:53 PM,77.0,68.0,74,30.10,10.0,ENE,5.8,-,N/A,,Clear,70,2012-01-21 02:53:00
5:53 PM,75.0,66.9,76,30.12,10.0,ENE,5.8,-,N/A,,Clear,70,2012-01-21 03:53:00
6:53 PM,73.9,68.0,82,30.14,10.0,NE,5.8,-,N/A,,Partly Cloudy,50,2012-01-21 04:53:00
7:53 PM,73.9,68.0,82,30.16,10.0,NE,4.6,-,N/A,,Mostly Cloudy,50,2012-01-21 05:53:00
8:53 PM,73.9,68.0,82,30.17,10.0,NE,8.1,-,N/A,,Mostly Cloudy,50,2012-01-21 06:53:00
9:48 PM,73.4,68.0,83,30.19,10.0,NNW,4.6,-,N/A,,Mostly Cloudy,340,2012-01-21 07:48:00
9:53 PM,73.0,68.0,84,30.18,10.0,NNW,4.6,-,N/A,,Mostly Cloudy,330,2012-01-21 07:53:00
10:34 PM,71.6,68.0,88,30.19,10.0,NE,5.8,-,N/A,,Scattered Clouds,40,2012-01-21 08:34:00
10:53 PM,73.9,69.1,85,30.18,10.0,NE,8.1,-,N/A,,Partly Cloudy,50,2012-01-21 08:53:00
11:41 PM,73.4,69.8,88,30.18,10.0,ENE,11.5,-,N/A,,Mostly Cloudy,60,2012-01-21 09:41:00
11:53 PM,73.9,68.0,82,30.17,10.0,ENE,11.5,-,N/A,,Mostly Cloudy,60,2012-01-21 09:53:00